Estherville, IA

4:04 AM CDT on July 28, 2017 (GMT -0500)
Estherville Municipal

Weather History for KEST - January, 2014

Change the Weather History Date:

Wednesday, January 8, 2014

  Actual Average Record
Temperature  
Mean Temperature 0 °F 15 °F  
Max Temperature 9 °F 24 °F 57 °F (2002)
Min Temperature -9 °F 7 °F -22 °F (1988)
Degree Days  
Heating Degree Days 65 50  
Month to date heating degree days 524 395  
Since 1 July heating degree days 3776 3538  
Cooling Degree Days 0 0  
Month to date cooling degree days 0 0  
Year to date cooling degree days 0 0  
Moisture  
Dew Point -6 °F    
Average Humidity 76    
Maximum Humidity 83    
Minimum Humidity 68    
Precipitation  
Precipitation 0.00 in 0.01 in 0.31 in (1989)
Month to date precipitation 0.01 0.06  
Sea Level Pressure  
Sea Level Pressure 30.46 in    
Wind  
Wind Speed 5 mph (NNE)    
Max Wind Speed 12 mph    
Max Gust Speed 13 mph    
Visibility 10 miles    
Events      
T = Trace of Precipitation, MM = Missing Value Source: NWS Daily Summary

Daily Weather History Graph

Daily Weather History Graph

Search for Another Location

Airport or City:

Trip Planner

Search our weather history database for the weather conditions in past years. The results will help you decide how hot, cold, wet, or windy it might be!

Date:

Astronomy

Jan. 08, 2014 Rise Set
Actual Time 7:51 AM CST 5:00 PM CST
Civil Twilight 7:19 AM CST 5:32 PM CST
Nautical Twilight 6:43 AM CST 6:08 PM CST
Astronomical Twilight 6:08 AM CST 6:42 PM CST
Moon 11:59 AM CST (1/8) 12:51 AM CST (1/8)
Length of Visible Light 10h 13m
Length of Day
9h 09m
First Quarter, 56% of the Moon is Illuminated
Jan 8
First Quarter
Jan 15
Full
Jan 23
Last Quarter
Jan 30
New
Feb 6
First Quarter

Hourly Weather History & Observations

Time (CST) Temp. Windchill Dew Point Humidity Pressure Visibility Wind Dir Wind Speed Gust Speed Precip Events Conditions
12:52 AM -0.9 °F -8.9 °F -6.0 °F 79% 30.34 in 10.0 mi NW 3.5 mph - N/A   Clear
1:52 AM -2.9 °F -11.2 °F -8.0 °F 79% 30.36 in 10.0 mi WNW 3.5 mph - N/A   Clear
2:52 AM -2.9 °F -13.3 °F -7.1 °F 82% 30.38 in 10.0 mi NW 4.6 mph - N/A   Clear
3:52 AM -2.9 °F -16.5 °F -9.0 °F 75% 30.39 in 10.0 mi NW 6.9 mph - N/A   Clear
4:52 AM -4.0 °F -16.3 °F -9.0 °F 79% 30.40 in 10.0 mi NW 5.8 mph - N/A   Partly Cloudy
5:52 AM -2.9 °F - -9.9 °F 72% 30.40 in 10.0 mi Calm Calm - N/A   Clear
6:52 AM -6.0 °F -16.9 °F -11.0 °F 79% 30.42 in 10.0 mi North 4.6 mph - N/A   Clear
7:52 AM -7.1 °F -18.1 °F -11.9 °F 79% 30.45 in 10.0 mi North 4.6 mph - N/A   Clear
8:52 AM -5.1 °F - -9.0 °F 83% 30.48 in 10.0 mi Calm Calm - N/A   Clear
9:52 AM -0.0 °F -9.9 °F -8.0 °F 69% 30.51 in 10.0 mi North 4.6 mph - N/A   Clear
10:52 AM 3.0 °F -6.4 °F -5.1 °F 69% 30.52 in 10.0 mi North 4.6 mph - N/A   Clear
11:52 AM 5.0 °F -5.6 °F -2.9 °F 70% 30.50 in 10.0 mi North 5.8 mph - N/A   Clear
12:52 PM 6.1 °F -2.8 °F -0.9 °F 73% 30.48 in 10.0 mi North 4.6 mph - N/A   Clear
1:52 PM 7.0 °F -3.3 °F -0.9 °F 70% 30.48 in 10.0 mi NNE 5.8 mph - N/A   Clear
2:52 PM 8.1 °F 1.4 °F -0.9 °F 67% 30.48 in 10.0 mi North 3.5 mph - N/A   Partly Cloudy
3:52 PM 8.1 °F -2.0 °F -0.9 °F 67% 30.49 in 10.0 mi NNE 5.8 mph - N/A   Clear
4:52 PM 5.0 °F -4.1 °F -2.9 °F 70% 30.50 in 10.0 mi ENE 4.6 mph - N/A   Clear
5:52 PM 1.0 °F -11.7 °F -4.0 °F 79% 30.49 in 10.0 mi ENE 6.9 mph - N/A   Clear
6:52 PM -0.0 °F -11.6 °F -6.0 °F 76% 30.50 in 10.0 mi East 5.8 mph - N/A   Clear
7:52 PM 1.0 °F -10.3 °F -4.0 °F 79% 30.51 in 10.0 mi ESE 5.8 mph - N/A   Overcast
8:52 PM 3.0 °F -11.5 °F -2.9 °F 76% 30.50 in 10.0 mi SE 9.2 mph - N/A   Overcast
9:52 PM 3.0 °F -10.5 °F -2.9 °F 76% 30.49 in 10.0 mi SSE 8.1 mph - N/A   Overcast
10:52 PM -0.9 °F -14.1 °F -5.1 °F 83% 30.48 in 10.0 mi SSE 6.9 mph - N/A   Clear
11:52 PM 1.9 °F -13.8 °F -4.0 °F 76% 30.45 in 10.0 mi SSE 10.4 mph - N/A   Overcast